Igor I Sikorsky Memorial Airport Bridgeport US
ICAO: KBDR
IATA: BDR
Category: Medium
Scheduled Services: Yes

Elevation: 9 ft
TransAlt. 18000 ft.

Airport Communications:
NEW YORK APP/DEP:124.075
ATIS:119.15
CLNC DEL:121.75
CTAF:120.9
GND:121.9
BRIDGEPORT RDO:108.8
BRIDGEPORT TWR:120.9
UNICOM:123

KBDR Zoom In..

Runways:

(A) RW 06 length 4677 ft width 150 ft
ILS 110.70 / hdg 58

(B) RW 11 length 4761 ft width 150 ft
---- / hdg 111

(C) RW 24 length 4677 ft width 150 ft
---- / hdg 238

(D) RW 29 length 4761 ft width 150 ft
---- / hdg 291

Location; KBDR
Day. 19 / Time. 03.52 Zulu
* Altimeter: 29.97
* Temperature: 21° c. 69.8°f.
* Wind from: 360° Speed 04 kn.
Dewpoint: 12° c.
Visibility: 10 Statute Miles.
Clouds: Clear (automated report).

KBDR 190352Z AUTO 36004KT 10SM CLR 21/12 A2997 RMK AO2 SLP150 T02110122


Wind From 360°
Speed 04 kn.

 
 
jpsmedia.com for Web Design worldairports.se 2018   terms of use